Overview Statistics Trail Chart Weather Telemetry Raw packets
 

This is the latest recevied weather packets stored in our database for station/object PP5CFL-13. If no packets are shown the sender has not sent any weather packets the latest 10 day(s).

<< 56 57 58 59 60 61 62 >>
Time Temp. Humidity Pressure Rain* Wind** Luminosity Snow
1788281858 21.67° C 59% 1012.8 hPa - - - -
1788281558 21.67° C 62% 1012.8 hPa - - - -
1788281258 21.67° C 67% 1012.9 hPa - - - -
1788280958 21.11° C 67% 1013.1 hPa - - - -
1788280658 21.67° C 68% 1013.1 hPa - - - -
1788280358 21.11° C 68% 1013.1 hPa - - - -
1788280058 21.11° C 69% 1013.1 hPa - - - -
1788279758 21.11° C 69% 1013.1 hPa - - - -
1788279458 21.11° C 69% 1013.1 hPa - - - -
1788279158 21.11° C 70% 1013.2 hPa - - - -
1788278858 21.11° C 69% 1013.1 hPa - - - -
1788278558 21.67° C 68% 1013.2 hPa - - - -
1788278258 21.67° C 68% 1013.2 hPa - - - -
1788277958 21.67° C 66% 1013.5 hPa - - - -
1788277658 21.67° C 63% 1013.2 hPa - - - -
1788277358 22.22° C 61% 1013 hPa - - - -
1788277058 23.33° C 54% 1013 hPa - - - -
1788276758 22.78° C 60% 1013.1 hPa - - - -
1788276458 22.22° C 65% 1013.1 hPa - - - -
1788276158 22.22° C 66% 1013.1 hPa - - - -
1788275858 22.22° C 65% 1013.1 hPa - - - -
1788275558 22.78° C 65% 1013 hPa - - - -
1788275258 22.78° C 64% 1012.9 hPa - - - -
1788274958 22.22° C 65% 1013 hPa - - - -
1788274658 22.22° C 66% 1012.9 hPa - - - -

* Rain since midnight (hover to see other rain measurements)
** Current wind speed in m/s (hover to see current wind gust speed)